Regional Weather Roundup
Issued by NWS

Home | Current Version | Previous Version | Graphics & Text | Print | Product List | Glossary On
Versions: 1 2 3 4 5 6 7 8 9 10 11 12 13 14 15 16 17 18 19 20 21 22 23 24 25 26 27 28 29 30 31 32 33 34 35 36 37 38 39 40 41 42 43 44 45 46 47 48 49 50
000
ASUS43 KLOT 250709
RWRIL

ILLINOIS REGIONAL WEATHER ROUNDUP
NATIONAL WEATHER SERVICE CHICAGO/ROMEOVILLE IL
200 AM CDT TUE JUL 25 2017

NOTE: "FAIR" INDICATES FEW OR NO CLOUDS BELOW 12,000 FEET WITH NO
SIGNIFICANT WEATHER AND/OR OBSTRUCTIONS TO VISIBILITY.

* THESE STATIONS ARE NOT UNDER NWS QUALITY CONTROL. THEY ALSO MAY NOT
  REPORT WEATHER SUCH AS PRECIPITATION OR FOG.

ILZ001-002-007-009-015-016-024-250800-
NORTHWEST ILLINOIS

CITY           SKY/WX    TMP DP  RH WIND       PRES   REMARKS
MOLINE         FAIR      63  59  87 E5        30.12R
STERLING*      FAIR      59  58  96 CALM      30.14R
SAVANNA*       FAIR      60  58  93 E3        30.14R
$$

ILZ003-004-008-010-011-017-018-250800-
NORTH CENTRAL ILLINOIS

CITY           SKY/WX    TMP DP  RH WIND       PRES   REMARKS
ROCKFORD       FAIR      62  58  86 CALM      30.15S
FREEPORT*      FAIR      57  56  97 CALM      30.17R
ROCHELLE*      FAIR      58  57  99 E3        30.14S
DE KALB*       FAIR      58  57  97 E3        30.15S
PERU*          FAIR     N/A N/A N/A CALM      30.14R
$$

ILZ005-006-012>014-019>023-250800-
NORTHEAST ILLINOIS

CITY           SKY/WX    TMP DP  RH WIND       PRES   REMARKS
CHICAGO-OHARE  FAIR      66  59  78 NE3       30.13S
CHICAGO-MIDWAY FAIR      68  62  81 E6        30.12F
AURORA         FAIR      57  57 100 CALM      30.14S
LANSING*       FAIR      62  59  91 CALM      30.14S
JOLIET*        FAIR      64  62  93 CALM      30.13F
WAUKEGAN       FAIR      58  58 100 CALM      30.13S
DUPAGE AIRPORT FAIR      60  59  96 CALM      30.13S
WHEELING       FAIR      63  62  97 CALM      30.15S
MORRIS*        FAIR      60  58  92 CALM      30.12S
ROMEOVILLE*    FAIR      62  58  87 E3        30.13S
NORTHERLY ISL    N/A     69  61  75 E3          N/A
$$

LMZ740>746-250800-
SOUTHERN LAKE MICHIGAN

STATION/POSITION SKY/WX   TEMP    WIND        PRES    VSBY  WAVE
                          AIR SEA DIR/SP/G                  HT/PER
                          (F)     (DEG/KT/KT) (MB)    (MI)  (FT/S)
SOUTHERN BUOY              69 70   30/  8/ 10 1020.5          2/ 6
WILMETTE HARBOR            70 72   90/  8/ 10   N/A           3/ 6
HARRISON CRIB              71     100/  8/  9   N/A
BURNHAM HARBOR             69                   N/A
CALUMET HARBOR                     70/  7/ 10 1019.7F
BURNS HARBOR               67     100/  8/ 10 1020.7S
MICHIGAN CITY              65      80/  6/  7   N/A
MICHIGAN CITY 6N           68 74  110/  8/ 12   N/A           4/ 6
ST. JOSEPH                 66 72  130/  6/  6 1020.5          2/ 5
$$

ILZ025>027-034>036-040-047-049-050-058-095>099-250800-
WEST-CENTRAL ILLINOIS

CITY           SKY/WX    TMP DP  RH WIND       PRES   REMARKS
QUINCY         MOCLDY    69  65  86 E8        30.09S
GALESBURG*     FAIR      64  61  91 E3        30.14R
MACOMB*        FAIR      61  60  98 NE3       30.13S FOG
JACKSONVILLE*  FAIR      64  63  94 CALM      30.10S
PITTSFIELD*    FAIR      68  66  94 CALM      30.11R
$$

ILZ028>032-037-038-041>044-048-051>054-059>061-250800-
CENTRAL ILLINOIS

CITY           SKY/WX    TMP DP  RH WIND       PRES   REMARKS
PONTIAC        FAIR      58  58  99 E3        30.14S FOG
BLOOMINGTON    FAIR      60  58  92 E5        30.14R
DECATUR        FAIR      63  61  93 E3        30.11R
PEORIA         FAIR      65  61  87 E5        30.13R
LACON*         FAIR      61  60  95 E3        30.13R
LINCOLN*       FAIR      63  62  97 NE5       30.12R
SPRINGFIELD    FAIR      67  64  90 NE5       30.11R
TAYLORVILLE    FAIR      66  64  91 E6        30.10R
$$

ILZ033-039-045-046-055>057-062-063-250800-
EAST-CENTRAL ILLINOIS

CITY           SKY/WX    TMP DP  RH WIND       PRES   REMARKS
CHAMPAIGN      FAIR      64  60  87 NE9       30.12R
RANTOUL*       FAIR      65  63  93 NE6       30.12S
MATTOON        FAIR      65  64  97 NE5       30.09S
PARIS*         FAIR      63  62  99 NE3       30.11S
$$

ILZ079-100>102-250800-
SOUTHWEST ILLINOIS

CITY           SKY/WX    TMP DP  RH WIND       PRES   REMARKS
ALTON          FAIR      70  67  92 E7        30.07S
BELLEVILLE     FAIR      71  68  89 NE5       30.07S
CAHOKIA*       FAIR      75  67  76 E6        30.05S
SPARTA*        MOCLDY    73  68  85 E6        30.05F
$$

ILZ064>066-069>071-074>076-080>082-084>086-088>090-092>094-250800-
SOUTH-CENTRAL ILLINOIS

CITY           SKY/WX    TMP DP  RH WIND       PRES   REMARKS
CARBONDALE     MOCLDY    75  71  87 CALM      30.04R
CAIRO*         FAIR      78  74  87 NE7       30.02S
EFFINGHAM*     FAIR      67  66  95 CALM      30.09S
MARION         MOCLDY    77  72  83 NE3       30.05S
MT. VERNON     FAIR      71  68  90 NE7       30.06S
CENTRALIA*     FAIR      71  69  92 NE6       30.05F
SALEM*         FAIR      72  67  83 CALM      30.07S
METROPOLIS*    MOCLDY    75  73  93 CALM      30.03S
$$

ILZ067-068-072-073-078-083-087-091-250800-
SOUTHEAST ILLINOIS

CITY           SKY/WX    TMP DP  RH WIND       PRES   REMARKS
LAWRENCEVILLE  FAIR      70  67  90 NE6       30.07S
FLORA*         FAIR      71  67  88 NE5       30.07S
FAIRFIELD*     FAIR      70  69  96 CALM      30.05S
HARRISBURG*    FAIR      73  69  87 NE5       30.04F
ROBINSON*      FAIR      66  65  95 NE5       30.09S
CARMI*         FAIR      71  69  93 NE3       30.04S
$$

ABBREVIATIONS USED IN REMARKS
   TC - TEMPERATURE IN CELSIUS
  WCI - WIND CHILL INDEX
   HX - HEAT INDEX
  VSB - VISIBILITY
$$





USA.gov is the U.S. government's official web portal to all federal, state and local government web resources and services.